COSMOS 2251 DEB, 37496

Orbit data source: Space-Track

COSMOS 2251 DEB, 37496 is space debris in LEO originally from a launch on Wed, 16 Jun 1993 UTC launched from the Plesetsk Missile And Space Complex (PKMTR). The debris from Iridium 33, an American commercial communications satellite, has been tracked extensively since its accidental collision with the defunct Russian satellite Cosmos 2251 in 2009. This event, occurring at high speed in low Earth orbit (LEO), generated thousands of pieces of space debris, significantly increasing the risk of further collisions. The Iridium 33 debris cloud has impacted space traffic management and orbital debris mitigation strategies, making it a subject of ongoing study in space situational awareness.

Loading next visibility...
Identifier
37496, 1993-036BLZ
Orbit
LEO
Country
Flag of CISCIS
Related business
Manufacturer
Unknown
Mission
Spacecraft
Bus & Motor
Unknown
Mass
Unknown
Launch date (UTC)
1993-06-16 (33 years ago)
Launch vehicle
Unknown
Launch site
Plesetsk Missile And Space Complex (PKMTR)
Object type
Payload
Rocket body
Debris
Shape & HBR
Unknown shape, 0.1 m
Radar Cross Section
Small (<0.1 m²)

Expand to show TLE details & history
Last TLE update: 3 days ago

TLE from 3 days ago
0 COSMOS 2251 DEB
1 37496U 93036BLZ 26104.18539538  .00014752  00000-0  11536-2 0  9992
2 37496  73.9465  72.9190 0053695  55.2049 305.4173 14.99924371678492
Epoch: 2026-04-14T04:26Z
TLE epoch observation values (Epoch: 2026-04-14T04:26:58.160Z)
Latitude
-0.00001°
Longitude
163.81139°
Altitude
548.33 km
Speed
7.6 km/s
True Right ascension
04h 51m 40s
True Declination
0° 00' 00"
Sunlit
Object was in daylight at epoch
Visualization orbit readout
Latitude
Unknown
Longitude
Unknown
Altitude
Unknown
Speed
Unknown
Apparent Right ascension
Unknown
Apparent Declination
Unknown
Sunlit
N/A
Visualization observer readout
Local Sidereal Time
01:25:57
Azimuth
Unknown
Elevation
Unknown
Doppler factor
Unknown
Orbital elements
Apogee altitude
601.971 km
Perigee altitude
527.412 km
Semi-major axis
6,942.828 km
Eccentricity
0.00537
Inclination
73.9465°
RAAN
72.919°
Arg. of periapsis
55.2049°
True anomaly
304.91391°
Mean anomaly
305.4173°
Eccentric anomaly
305.1658°
Mean motion
3.75179 °/min
Orbital period
95.95 mins
BSTAR
0.0011536

Documentation

Showing up to 5 results
|